RH
81 81 79 75 72 68 64 61 56 49 42 38 39 38 37 37 34 32 32 34 37 38 38 40 41 40 39 40 41 42 44 45 46 47 48 50 51 52 54 53 54 55 56 56 56 59 63 67 69 67 67 71 71 69 67 64 68 75 83 89 92 93 95 99 100 95 89 85 83 81 78 76 74 70 67 64 64 71 79 81 79 74 67 57 43
81 81 80 76 73 69 65 62 57 49 41 38 40 40 39 38 33 31 32 34 37 37 39 40 41 41 41 41 42 43 44 46 47 49 50 52 53 55 56 57 57 57 59 61 60 58 61 65 68 63 61 67 69 68 67 65 69 77 83 89 94 95 98 100 100 98 94 89 87 85 82 80 78 73 72 76 78 81 82 72 59 53 49 46 44
81 81 79 75 72 69 65 62 55 46 39 39 42 41 41 37 32 31 33 34 37 38 40 41 41 42 42 42 43 44 46 47 48 50 52 54 56 58 59 60 60 61 61 62 61 60 62 66 66 59 57 65 68 66 66 66 71 80 85 89 94 96 97 99 102 101 97 93 91 88 84 81 79 75 75 76 72 68 63 54 51 50 47 47 54
78 78 76 72 70 67 64 60 51 42 40 42 43 42 39 34 31 32 34 36 38 39 41 42 42 43 43 44 45 46 48 49 50 52 53 55 57 60 62 62 62 63 63 63 62 62 65 68 66 60 62 71 71 64 64 68 75 83 88 90 93 96 97 100 103 101 99 96 92 89 87 83 81 79 78 75 67 58 55 58 63 64 60 63 67
73 73 73 71 69 65 62 55 46 41 42 44 43 40 34 31 32 34 35 37 39 41 42 43 44 45 45 46 47 48 50 50 52 53 54 57 59 60 63 64 65 66 66 66 65 64 67 69 66 63 68 75 74 69 70 74 79 84 89 92 93 95 98 102 103 101 101 100 95 92 90 88 86 83 81 80 75 71 69 70 73 74 74 71 64
70 72 72 71 68 64 59 50 42 42 45 44 40 35 32 32 34 35 37 40 40 42 44 45 46 47 47 48 49 50 51 52 53 55 56 58 60 61 63 64 65 67 69 69 68 66 67 67 64 62 68 75 76 77 80 81 83 86 89 91 93 95 99 101 102 103 103 101 98 96 94 91 88 85 82 80 79 79 77 75 76 76 75 71 65
71 73 73 71 67 61 53 45 43 44 45 41 36 34 33 34 36 38 40 41 43 44 46 47 49 49 49 51 51 52 53 54 55 56 58 60 61 63 65 66 67 69 70 70 68 67 68 68 69 72 78 83 85 86 87 86 86 87 88 89 91 96 101 101 102 104 103 101 100 99 98 93 88 85 82 79 78 79 79 82 83 77 74 77 78
73 74 72 67 60 53 46 43 45 45 42 38 35 35 36 37 38 41 43 44 46 47 48 50 50 51 53 53 53 55 55 56 58 59 61 62 63 64 65 66 69 70 71 73 74 76 79 79 81 86 90 92 91 89 88 87 88 89 88 90 93 98 102 103 104 104 102 100 100 100 99 96 90 85 82 79 80 81 78 80 83 79 76 78 77
72 69 64 56 49 44 43 45 46 43 40 38 38 38 39 40 42 44 45 46 48 49 51 52 53 54 55 55 56 57 57 59 60 60 63 64 65 68 70 73 78 81 84 87 88 88 89 88 88 90 92 92 89 88 86 84 89 91 87 86 92 97 100 103 105 104 102 101 101 100 99 97 93 87 82 80 81 80 76 75 78 79 77 77 75
65 60 52 46 43 43 45 46 44 42 40 39 39 40 41 43 45 45 47 49 50 52 53 54 56 57 58 59 60 59 61 62 61 65 76 83 85 89 91 92 95 96 98 98 96 95 94 92 91 90 88 88 86 86 87 88 92 95 92 91 95 99 101 102 104 104 103 102 100 97 96 94 90 86 84 82 80 79 78 79 80 79 79 82 81
55 49 44 43 44 46 47 46 44 42 41 40 40 43 44 45 46 47 49 52 53 55 57 58 60 61 61 63 63 63 65 63 65 79 95 100 100 100 101 101 100 100 100 100 99 99 99 98 97 95 93 93 95 95 97 99 101 101 99 99 99 99 99 100 102 102 102 102 100 97 98 95 88 84 83 81 80 81 81 81 83 83 85 90 90
47 43 44 45 47 48 47 46 45 42 40 41 43 45 46 47 49 50 53 56 57 58 60 61 63 63 64 67 67 69 69 68 77 94 102 100 100 101 101 101 100 100 100 100 99 99 100 100 100 99 97 96 95 94 93 93 96 99 101 100 100 99 98 98 100 101 102 101 99 96 97 95 91 87 86 87 87 87 88 87 87 88 87 89 91
44 45 47 47 49 50 48 47 44 40 40 42 45 48 49 50 52 54 57 59 60 62 63 64 66 67 69 71 71 74 74 74 86 101 103 100 100 101 100 100 101 100 100 100 100 100 100 100 100 99 96 93 93 94 96 95 95 99 102 102 100 96 95 96 97 98 100 102 103 103 100 98 98 94 89 88 90 91 92 92 90 92 93 90 89
47 48 49 50 51 50 48 46 43 42 43 45 48 50 51 54 56 58 60 61 63 65 67 68 71 72 74 76 76 80 80 79 90 102 102 100 100 100 100 101 100 100 100 100 100 100 100 100 100 98 95 95 94 91 89 87 87 89 90 87 82 75 74 76 75 74 76 81 89 92 84 76 77 75 66 65 71 76 78 78 76 79 82 82 80
50 51 51 52 51 49 48 47 45 46 47 49 51 53 55 58 60 61 64 65 67 69 71 73 76 77 80 82 83 86 85 85 95 103 101 99 101 100 100 100 100 100 100 100 100 101 101 99 97 96 96 94 85 75 72 73 74 77 76 71 65 61 58 58 58 57 55 55 59 62 58 53 53 53 50 51 57 62 67 72 73 74 78 81 81
52 52 52 51 50 48 48 48 48 49 50 52 55 57 59 62 63 65 68 69 72 75 76 79 81 82 85 88 90 92 89 89 99 104 100 99 101 99 99 100 100 100 100 99 99 99 97 96 95 95 96 92 78 71 81 89 88 89 89 82 77 75 70 62 58 57 55 54 53 52 52 53 55 58 63 69 74 77 81 88 91 93 97 97 95
53 52 51 50 49 48 49 50 51 52 55 57 60 62 64 66 67 70 73 75 78 80 81 84 85 88 92 93 96 97 92 90 99 104 101 100 101 99 100 100 99 100 100 99 100 100 98 98 100 97 96 89 74 72 91 104 101 99 100 97 95 96 91 78 69 66 65 69 74 77 77 78 80 83 83 84 89 94 98 100 99 100 103 101 98
52 52 50 49 49 50 51 53 55 57 60 62 65 67 69 70 72 75 78 81 83 85 87 90 92 95 98 98 99 100 96 91 97 104 103 100 100 100 100 100 100 100 99 97 98 99 98 96 95 94 94 87 77 83 95 93 92 98 101 100 102 103 100 93 88 85 79 74 73 74 74 75 82 87 83 77 79 82 84 81 77 84 94 95 92
50 50 50 50 51 53 54 56 58 62 65 68 70 72 73 75 77 80 83 87 89 91 94 97 99 100 101 101 100 102 101 93 91 100 104 101 101 101 99 100 100 98 98 97 96 96 96 93 89 92 100 97 92 96 88 69 74 94 100 100 104 103 100 97 96 97 93 84 74 69 66 67 76 83 81 75 72 68 63 56 55 68 83 87 85
49 50 51 53 54 55 56 59 63 67 70 72 74 76 79 81 83 86 90 92 94 98 100 102 103 101 100 102 101 101 102 94 86 96 107 104 100 101 100 100 100 100 99 99 99 99 99 97 90 87 94 99 101 103 91 74 80 96 99 102 107 102 96 95 94 96 98 98 94 89 86 84 82 79 73 67 64 59 53 47 49 61 76 84 84
51 52 54 56 57 58 59 62 67 70 73 76 79 82 84 87 89 92 95 98 100 102 102 102 102 99 97 100 100 98 100 95 87 92 105 106 100 99 101 100 99 100 100 99 100 101 99 98 93 85 85 95 103 102 90 79 82 90 94 98 97 87 83 89 95 98 100 99 93 88 84 79 72 65 60 55 54 52 47 43 45 54 67 80 86
53 55 58 59 60 61 62 66 70 74 77 81 84 86 87 89 92 95 99 102 102 102 101 100 100 99 97 98 99 96 95 94 89 87 95 103 103 99 100 101 99 100 101 100 100 100 98 98 95 86 85 96 104 100 88 79 79 83 86 86 83 82 86 94 98 98 94 87 80 73 68 64 59 55 51 48 46 44 43 40 41 49 62 74 84
57 59 61 62 62 62 64 69 74 78 82 85 87 89 88 88 93 98 102 103 101 100 101 100 100 101 99 98 97 95 91 90 88 83 84 95 104 102 99 100 101 99 100 100 99 100 101 99 98 96 98 103 99 88 80 78 79 82 85 84 86 93 99 100 97 90 82 76 72 67 62 58 56 54 51 49 48 46 47 48 51 61 75 85 91
61 64 64 64 62 62 65 71 76 80 83 87 90 90 89 89 94 99 103 103 101 100 101 101 101 102 101 99 96 95 92 87 84 81 77 83 96 104 102 100 100 99 100 101 100 100 100 99 99 100 95 87 78 74 80 87 91 92 93 92 95 101 102 97 91 83 77 74 72 69 65 61 60 60 59 61 63 64 66 72 79 87 95 99 99
65 66 66 65 63 63 66 69 72 77 82 87 90 89 88 91 95 99 104 104 102 102 101 100 101 100 101 101 97 94 92 88 82 78 74 72 80 93 100 101 100 99 99 99 99 101 102 102 102 100 90 79 80 87 93 94 90 87 84 86 93 100 98 91 86 82 80 78 76 73 69 65 65 70 74 78 81 83 84 87 89 89 87 85 83
70 69 69 67 64 65 68 67 68 74 79 84 87 87 89 94 97 100 105 105 102 101 100 101 102 101 100 101 98 94 91 87 80 75 72 69 69 74 81 83 81 78 77 75 75 80 85 87 88 90 88 87 91 92 85 77 74 78 85 92 97 97 93 91 90 86 83 80 77 74 72 72 76 82 85 87 89 90 92 92 89 83 78 79 85
74 72 70 69 67 68 71 70 70 74 77 79 83 85 89 94 98 101 104 104 103 102 101 100 101 101 100 99 98 95 91 86 82 75 72 72 73 73 74 72 66 63 62 61 60 62 66 68 70 73 77 83 88 89 86 84 85 89 94 96 95 94 94 95 93 88 83 81 81 81 81 82 85 87 88 91 93 92 90 89 92 92 90 93 100
74 73 72 72 72 73 75 76 77 78 77 78 81 84 87 94 98 98 98 101 104 105 105 104 102 101 101 99 98 99 95 89 84 78 75 76 78 77 75 72 69 68 67 66 66 67 68 70 74 78 81 84 87 86 84 83 83 84 83 81 83 89 93 92 90 88 86 85 85 85 84 83 86 89 92 96 96 89 82 84 93 100 100 100 102
75 74 76 77 78 78 79 79 79 80 80 81 82 83 86 92 97 95 94 97 102 102 102 103 101 99 98 98 99 102 101 93 85 82 86 89 89 87 85 83 82 81 79 77 78 80 83 87 90 91 91 91 91 90 86 82 82 84 83 83 87 93 95 93 91 87 82 79 79 80 82 85 91 95 97 98 93 83 80 89 100 102 100 100 101
79 79 81 82 81 80 81 79 79 83 85 87 88 87 86 89 96 101 100 99 100 102 101 100 99 98 98 99 99 100 101 97 92 95 100 99 97 98 99 97 97 97 94 92 93 96 99 101 101 101 100 99 100 100 97 94 92 90 90 91 95 98 97 93 88 82 78 78 79 81 88 96 102 102 99 98 93 86 87 97 102 101 101 103 103
86 85 85 84 81 80 82 82 84 88 90 92 97 98 94 90 93 99 102 99 97 99 101 101 100 100 101 101 100 100 101 100 100 102 101 95 93 96 98 99 102 103 101 99 100 102 103 100 99 100 100 100 101 101 99 99 98 97 96 96 96 96 92 87 82 80 79 79 80 86 97 105 106 102 98 96 96 96 98 100 100 99 101 103 102
90 88 86 84 83 84 87 88 90 93 94 95 99 102 104 101 97 94 97 100 100 102 103 102 101 100 100 100 100 100 101 101 100 101 100 96 95 97 99 100 98 94 95 100 101 101 102 101 100 101 100 100 101 100 99 99 98 96 95 93 91 88 85 82 81 80 80 82 87 94 101 104 102 99 97 98 100 101 101 101 100 100 100 100 101
91 89 87 87 88 89 91 92 94 95 96 98 100 102 106 108 104 97 95 97 100 104 105 104 102 101 101 102 102 101 101 100 100 100 100 99 99 99 101 100 92 87 93 102 102 99 100 101 100 99 97 96 94 92 90 90 89 89 90 90 89 87 84 84 84 83 84 87 90 93 99 101 99 98 101 103 103 103 102 101 100 100 101 101 101
87 88 87 89 91 92 92 93 94 94 96 98 101 103 105 107 106 103 100 97 97 98 100 99 98 98 99 101 102 103 102 101 101 100 100 100 100 100 101 100 95 94 100 103 100 99 99 98 96 94 91 88 85 83 82 81 81 82 85 87 89 89 89 88 88 87 88 87 87 93 100 98 93 94 100 103 103 103 103 101 99 100 101 101 101
86 87 87 90 92 92 91 91 91 93 95 97 100 103 106 106 104 103 103 101 100 98 97 95 95 96 98 99 100 101 102 101 100 100 100 100 99 99 100 101 100 100 101 100 97 94 90 87 87 86 84 84 83 83 82 82 81 82 85 90 95 96 94 93 91 89 88 88 90 94 96 91 89 95 101 103 104 105 103 100 100 101 101 100 100
90 90 88 87 87 87 87 88 89 92 95 97 101 104 104 103 101 101 100 100 101 100 98 96 94 94 97 99 100 101 101 100 100 101 100 100 101 102 102 100 98 96 94 90 86 83 80 79 81 82 83 86 87 87 87 87 85 84 87 93 100 101 98 95 93 91 90 92 95 94 91 91 96 100 100 101 104 104 102 100 100 100 100 100 99
91 88 84 80 79 82 85 86 89 93 96 101 105 104 102 100 100 100 100 100 100 100 100 98 97 96 96 97 98 98 98 98 101 102 100 99 99 96 90 86 86 89 89 85 82 82 82 81 81 83 86 88 89 90 91 90 88 89 91 95 100 102 99 97 95 92 91 94 95 93 94 98 99 94 94 102 106 102 100 101 101 100 100 99 97
81 80 78 77 80 84 87 88 91 96 101 105 105 102 100 101 100 100 101 100 100 100 100 99 99 99 97 95 93 93 95 97 101 102 99 94 90 85 80 78 82 88 91 90 89 90 89 88 87 89 91 92 94 95 96 94 92 92 93 96 98 100 101 101 98 95 95 97 98 98 99 99 93 89 96 107 107 100 100 102 101 100 100 99 98
75 76 79 81 84 88 90 92 97 101 104 104 102 100 100 100 100 100 101 100 100 100 100 100 100 99 97 95 93 93 96 101 103 102 99 96 93 92 91 91 93 95 96 96 95 96 96 96 95 95 95 96 98 99 99 98 95 93 94 97 100 102 103 103 100 98 99 100 100 99 98 94 90 92 101 106 103 101 104 105 102 100 100 100 100
78 81 83 85 88 91 94 98 102 105 103 101 101 102 102 100 100 100 100 100 100 100 100 100 100 98 96 96 96 98 101 103 103 102 100 100 100 100 100 101 102 102 102 102 101 101 100 99 99 99 99 100 100 100 101 100 98 95 96 99 102 103 104 101 98 97 99 99 97 96 95 92 93 99 104 103 100 101 103 103 102 101 100 99 100
84 86 88 90 93 95 99 103 105 105 103 101 101 103 102 100 100 100 100 100 100 100 100 100 100 98 97 99 99 100 101 101 100 100 99 100 100 101 101 102 102 103 103 103 102 102 102 101 101 101 100 100 100 101 101 101 100 99 99 101 104 106 106 103 99 97 97 98 96 96 95 95 97 102 103 100 99 100 102 102 102 101 100 100 100
89 91 93 96 98 101 104 105 105 104 103 102 102 102 102 101 100 100 100 100 100 100 100 100 100 98 99 99 99 99 99 99 100 100 99 99 99 99 99 99 99 100 100 100 100 101 101 102 102 102 101 101 100 101 101 101 100 100 101 102 104 106 106 104 101 98 97 98 98 97 97 98 99 102 102 100 98 99 101 102 101 100 100 100 100
95 97 99 100 101 104 106 105 105 105 105 104 104 104 102 101 100 100 100 100 100 100 100 100 100 99 98 98 99 100 100 100 100 100 100 100 99 99 99 99 99 99 99 99 99 99 100 102 103 103 102 101 100 101 101 99 97 99 102 104 105 106 106 106 103 99 98 99 100 99 99 100 100 102 102 100 100 100 100 101 101 100 100 100 100
98 99 100 100 101 104 105 104 104 105 105 105 105 103 101 100 100 100 101 101 101 101 100 100 100 100 99 99 99 100 100 100 100 100 99 99 99 98 99 99 99 100 100 100 100 100 101 102 104 104 103 102 102 103 102 97 94 96 101 104 106 106 106 105 103 98 97 98 99 100 101 102 102 104 104 102 101 102 103 102 101 100 99 100 100
96 98 99 101 102 103 102 102 102 102 103 103 103 101 101 102 101 101 101 101 101 101 100 100 100 100 100 100 100 99 99 99 99 98 98 98 98 98 98 98 99 100 101 101 100 100 101 102 104 105 103 100 100 103 103 97 93 93 98 103 107 107 105 103 101 98 97 99 101 103 105 105 104 104 104 102 101 102 103 102 100 100 100 100 100
96 98 101 104 104 103 102 102 101 101 102 103 102 101 101 101 101 101 101 101 100 100 100 100 100 100 100 100 99 98 98 98 98 98 97 97 97 97 98 99 100 100 101 101 101 101 103 103 104 105 103 99 99 103 103 97 91 91 96 102 106 106 104 102 100 100 101 102 104 106 106 105 105 104 103 101 100 101 101 100 100 100 100 100 99
98 101 104 105 104 102 101 101 100 101 102 102 101 101 100 100 101 102 101 101 101 101 100 101 101 100 100 99 98 98 98 98 98 98 97 97 98 98 99 99 100 100 101 101 101 103 104 104 103 104 103 100 100 102 101 96 92 93 97 101 104 105 104 101 100 101 102 103 106 108 106 103 102 102 100 100 101 101 100 101 101 100 100 100 100
99 102 106 105 102 100 100 100 100 100 101 101 101 101 101 101 101 102 102 102 102 102 101 101 101 100 99 99 98 98 98 98 98 99 99 99 99 99 99 100 101 101 101 102 103 104 105 105 105 105 104 102 102 103 100 95 93 95 99 102 103 103 102 100 100 102 104 104 106 108 105 101 100 101 100 101 102 101 101 102 102 100 100 100 100
100 104 106 104 101 100 100 101 101 100 100 101 102 102 102 103 103 104 103 103 103 102 101 101 100 100 100 100 99 98 99 99 99 99 99 99 100 100 100 101 101 101 102 104 104 104 104 104 104 103 100 99 102 103 98 91 88 91 96 101 101 100 101 101 101 103 104 105 106 105 102 100 100 101 100 100 100 101 103 104 102 100 100 100 99
102 106 105 101 100 100 100 100 101 100 100 101 102 103 104 104 104 105 104 103 102 102 101 101 100 100 100 100 100 100 100 99 99 100 100 100 100 100 100 101 102 102 102 103 104 104 104 104 103 99 95 96 101 103 100 95 92 92 95 99 101 100 99 100 102 103 104 105 105 103 101 100 100 100 100 100 99 100 102 102 100 99 100 100 99
104 106 103 100 101 101 100 100 100 100 100 101 102 102 104 104 104 104 103 102 102 102 101 101 101 100 100 100 100 100 100 100 100 100 100 100 101 102 102 101 102 102 101 103 105 105 104 104 103 100 98 99 102 102 101 101 101 100 100 100 100 100 100 101 103 104 103 102 101 101 100 100 100 101 100 99 99 100 100 100 100 100 100 100 100
Wind_Speed
33 34 34 34 34 34 34 33 31 29 27 24 22 21 20 21 22 23 23 24 23 23 23 22 21 21 20 20 21 21 22 22 21 21 21 20 20 20 20 19 19 19 19 19 19 18 19 19 19 20 19 20 20 20 20 19 18 18 17 17 18 17 16 15 14 16 20 20 21 22 21 22 24 22 23 25 24 23 21 21 21 23 26 29 30
33 33 33 33 33 33 33 32 29 27 26 24 22 21 21 23 23 24 25 25 24 24 24 23 22 21 21 21 22 22 22 22 22 21 21 21 21 21 21 20 20 20 20 20 20 20 20 21 21 21 21 21 22 21 21 20 19 19 18 18 19 18 16 16 16 17 19 20 20 20 18 17 20 20 20 21 22 22 23 26 29 30 31 31 30
31 31 31 32 32 31 31 30 28 27 25 23 22 22 23 24 24 25 26 26 25 25 24 23 22 21 22 23 23 23 23 23 22 22 21 21 22 21 21 20 20 21 21 22 22 22 22 22 23 23 22 22 22 21 21 20 19 20 20 19 19 19 18 17 17 18 20 21 19 17 16 16 18 18 17 21 25 27 30 32 31 29 28 27 27
29 29 30 30 30 29 29 28 26 26 24 23 23 23 24 24 25 26 26 26 26 25 24 23 22 22 23 24 23 23 23 23 23 23 22 22 22 22 22 21 21 22 23 23 24 24 24 24 24 24 23 22 23 22 21 21 20 20 21 20 20 21 20 18 17 18 20 22 19 17 16 17 18 19 19 23 27 30 31 30 28 27 26 25 26
28 28 28 28 28 28 27 26 25 25 23 23 23 23 24 25 25 26 26 26 26 25 24 23 22 23 24 24 24 24 24 24 23 23 23 23 23 23 23 22 23 24 24 25 25 25 25 26 25 24 23 23 23 22 22 21 22 22 22 22 21 21 21 19 18 18 20 22 21 18 17 17 19 20 20 22 25 26 28 29 27 26 25 26 28
27 27 27 27 27 27 26 25 24 23 22 22 22 23 24 25 25 25 25 25 25 25 24 23 23 24 25 25 25 25 25 24 25 24 24 24 24 24 24 24 25 26 27 27 27 27 27 26 26 25 24 24 24 23 22 22 23 23 24 24 23 23 22 21 21 21 21 22 22 19 18 17 18 19 18 18 22 23 26 28 28 27 26 27 27
26 26 26 26 26 25 25 24 23 21 21 20 21 22 24 24 24 24 24 24 24 24 23 23 24 24 25 25 25 25 25 25 26 25 25 25 25 25 26 26 27 28 29 29 28 28 28 27 26 24 23 24 24 24 24 23 24 25 25 25 25 24 24 24 24 23 22 21 20 19 18 17 18 19 18 18 21 22 22 24 26 29 28 25 25
24 24 25 25 25 24 23 22 20 19 19 19 21 22 23 23 23 23 23 23 23 23 24 24 24 24 24 25 25 25 26 26 27 27 27 27 27 27 28 28 29 30 30 30 29 28 27 26 25 25 24 24 24 24 24 24 25 26 26 25 25 25 25 25 25 24 23 22 20 19 19 18 17 19 19 18 18 19 20 21 24 27 28 28 28
23 23 24 24 24 23 21 19 18 18 18 19 21 21 22 22 22 22 22 23 23 23 24 24 24 24 25 26 26 27 27 28 28 28 28 28 28 29 30 30 30 31 31 30 29 28 27 26 25 25 25 25 25 24 24 24 26 27 27 26 26 26 26 26 26 25 24 23 21 19 18 18 17 19 20 19 19 22 23 24 26 28 29 31 34
23 23 24 23 22 20 18 17 17 17 18 20 20 21 21 21 22 22 22 23 23 24 24 24 24 25 26 27 27 28 29 29 29 28 27 27 28 29 29 29 29 30 30 30 29 28 29 28 27 26 26 26 24 24 24 25 26 28 28 28 28 28 27 27 27 25 23 22 21 20 18 17 18 20 21 22 23 25 25 25 26 28 26 26 31
23 23 23 21 20 18 17 16 16 17 18 20 20 21 21 21 22 23 23 23 23 23 24 24 24 25 26 27 28 29 30 30 29 27 26 26 28 29 29 29 29 29 29 30 30 30 28 27 26 25 25 24 24 24 25 26 26 27 28 28 28 28 28 27 26 25 23 22 22 21 18 18 21 23 24 26 26 26 26 25 25 25 22 17 19
22 22 21 20 18 17 16 16 16 18 19 20 20 21 21 22 22 23 23 23 23 23 24 25 25 25 25 26 28 29 30 30 28 27 27 28 29 29 29 29 28 27 27 28 28 27 25 25 24 24 25 25 26 27 27 28 28 28 28 28 27 28 28 29 28 26 25 25 25 24 21 20 22 24 24 24 24 25 24 23 23 23 22 19 18
21 21 19 18 17 16 15 16 17 18 19 20 21 21 21 22 23 23 23 23 23 24 25 26 26 26 25 26 28 29 30 30 28 27 28 29 29 29 30 29 28 28 27 27 27 27 27 26 25 25 26 26 26 27 28 29 30 30 30 30 30 30 31 31 32 31 29 28 26 24 21 20 21 22 23 23 24 24 22 22 24 24 23 23 25
20 19 18 17 16 15 15 16 17 19 20 20 21 22 22 23 23 23 24 24 24 25 26 27 27 27 26 27 28 29 30 30 28 27 27 28 29 29 30 30 30 29 28 28 28 27 26 25 24 25 26 26 27 28 30 32 33 33 33 33 33 34 33 33 34 34 34 33 32 31 30 29 30 31 32 32 31 30 28 27 28 28 28 29 31
18 18 17 16 16 16 16 17 18 19 20 21 21 22 22 23 24 24 24 24 25 26 26 27 28 28 27 27 28 30 31 30 28 26 27 28 29 29 29 29 28 27 26 26 26 25 24 23 25 26 27 27 28 29 30 32 33 33 34 34 34 35 35 35 35 35 35 35 35 36 35 35 35 35 35 35 36 36 36 34 34 33 32 31 30
17 17 17 16 16 16 17 18 19 20 21 21 22 22 23 24 24 24 24 25 25 26 27 27 28 28 27 27 28 30 31 30 27 26 27 27 28 28 28 28 27 26 27 28 28 28 28 27 27 27 27 27 27 26 27 29 30 31 32 33 34 35 35 35 33 33 34 34 34 35 34 33 33 34 34 33 34 35 34 33 32 30 27 24 23
17 17 17 17 17 17 18 19 20 21 21 21 22 22 23 23 23 23 23 25 25 26 27 27 27 28 27 28 28 30 32 31 28 26 27 27 27 28 28 27 27 27 28 28 29 29 28 26 26 26 27 27 27 26 27 29 30 31 32 33 33 34 34 34 33 32 32 33 33 33 32 31 29 27 27 25 24 22 18 17 18 19 17 13 13
17 17 18 18 18 18 18 19 20 20 21 21 22 22 22 23 23 22 23 24 25 26 26 26 27 27 28 28 29 30 33 33 29 26 26 26 26 27 28 27 27 27 26 26 26 26 26 26 26 27 29 29 29 27 27 29 32 33 32 32 32 31 31 31 31 31 31 31 32 32 31 29 27 25 24 24 22 19 15 13 14 14 13 11 11
18 18 19 18 17 17 17 18 19 19 20 21 21 22 22 22 22 22 22 24 25 25 25 26 28 28 28 29 29 30 32 33 31 27 26 26 26 27 27 27 28 29 29 28 28 29 29 29 28 28 28 29 28 28 28 30 33 34 33 31 29 29 29 29 29 30 31 31 32 33 33 32 30 27 24 23 22 21 20 18 16 14 15 16 15
19 19 18 17 16 16 17 17 18 19 20 20 20 21 21 21 21 22 23 24 24 25 26 26 28 30 30 30 30 30 31 32 32 29 26 26 26 26 26 28 28 28 27 26 27 27 27 28 28 28 28 27 27 27 29 31 32 33 33 30 28 28 30 31 31 30 28 27 26 26 28 28 26 24 23 23 23 24 24 22 18 16 17 18 18
18 17 17 16 16 17 17 17 18 18 19 19 20 21 21 21 22 22 23 23 24 26 26 27 28 31 31 30 31 31 31 31 32 30 27 26 26 25 26 28 27 26 25 25 25 26 27 28 29 29 28 25 25 27 30 31 30 30 30 28 28 31 32 30 27 22 19 17 17 17 19 22 23 23 23 24 25 26 26 25 22 19 18 19 20
17 16 16 16 17 17 17 18 18 18 18 19 20 21 21 21 22 22 22 23 24 26 27 27 28 30 32 31 31 31 31 30 31 30 27 26 26 25 27 28 27 25 25 25 26 27 28 28 29 28 26 25 25 27 29 30 30 30 29 28 28 28 22 16 14 13 12 12 13 15 18 20 22 23 24 24 25 26 27 27 25 22 20 20 21
16 16 16 17 17 17 17 18 17 18 19 19 20 22 22 21 22 22 22 23 24 26 27 27 27 29 31 32 31 31 30 30 29 29 27 26 25 25 26 27 26 26 26 26 25 25 25 25 25 25 23 24 27 29 30 30 31 30 28 26 23 16 9 8 8 10 13 15 16 18 20 21 22 24 24 24 25 25 25 25 24 22 21 20 21
16 16 17 17 18 18 18 18 18 19 19 19 20 22 22 22 22 23 22 22 23 25 26 25 24 26 28 30 31 30 29 29 28 27 26 25 24 24 25 25 25 26 26 26 24 22 22 22 22 23 25 27 29 30 29 28 27 24 21 19 16 11 9 11 13 14 15 17 17 19 21 21 22 22 22 21 21 21 22 23 22 22 23 24 26
16 17 18 18 18 18 18 19 19 20 20 20 21 22 22 22 22 23 22 21 22 24 25 24 23 24 26 28 30 30 29 29 28 26 24 23 23 23 24 25 25 26 27 27 26 23 22 22 23 24 26 28 28 27 26 26 25 23 21 19 17 15 16 17 17 16 16 17 18 19 21 22 22 21 19 19 19 20 21 23 24 25 27 29 30
16 18 18 18 18 18 19 20 21 21 21 20 21 22 22 21 22 22 21 21 22 24 25 24 23 23 24 26 29 30 30 29 28 25 23 23 24 24 24 25 26 26 28 30 30 29 28 27 26 26 25 25 24 24 25 26 25 23 20 18 18 19 20 20 19 19 18 18 19 21 22 22 21 19 18 18 19 21 21 23 25 26 26 27 28
17 19 19 19 19 19 20 21 21 21 21 21 21 22 21 21 22 23 23 22 22 23 24 23 22 22 23 26 28 29 29 29 28 27 25 26 27 26 26 26 27 27 29 30 31 30 30 29 28 27 25 24 24 23 23 23 22 21 20 20 21 22 23 22 21 20 19 20 20 21 21 20 19 19 18 18 19 21 21 21 23 24 23 22 23
18 19 19 19 20 20 21 21 22 22 22 21 21 22 22 21 22 24 24 23 23 24 24 24 24 24 25 26 27 27 28 30 30 29 28 27 26 26 26 27 27 28 29 29 28 28 28 28 28 28 27 27 26 26 26 25 26 26 26 26 25 25 23 22 20 19 20 20 20 20 20 20 19 19 18 18 20 21 21 20 21 22 21 20 20
18 20 20 20 21 21 21 21 22 22 22 22 22 22 23 22 23 25 25 24 23 25 26 27 28 28 28 29 27 25 27 30 31 29 28 27 26 27 28 28 28 28 28 27 28 29 29 28 28 27 27 27 26 26 26 27 27 27 26 26 25 24 23 21 20 21 21 20 20 20 20 19 19 19 18 19 21 21 19 17 18 20 20 20 20
19 20 20 20 21 21 21 21 21 21 21 22 23 23 24 23 21 22 24 25 23 23 25 29 30 29 30 31 31 30 31 32 30 27 26 26 26 26 27 28 29 30 30 30 30 29 27 25 24 24 24 24 23 23 24 25 25 26 26 25 24 22 22 22 22 22 21 20 19 19 18 18 18 18 18 19 21 20 17 16 17 18 19 18 19
19 21 21 21 21 20 20 21 21 21 21 21 22 23 25 26 24 21 22 23 23 22 23 26 27 27 28 29 29 28 27 27 25 25 26 27 26 24 24 23 23 24 25 26 27 27 25 23 23 23 24 23 23 23 23 23 23 24 24 23 22 22 22 23 23 22 21 19 19 18 17 17 18 18 18 19 19 18 17 16 17 18 18 19 19
19 21 21 21 20 20 20 20 20 21 21 21 21 21 23 25 27 26 22 19 19 21 22 24 25 25 25 25 25 24 22 21 22 24 26 26 25 23 21 20 22 24 25 24 22 22 21 21 21 20 21 21 21 21 21 21 21 22 22 22 22 23 23 24 22 21 19 19 18 18 18 18 18 18 18 18 17 16 16 16 17 17 18 19 20
19 21 21 20 20 20 20 20 20 20 21 21 21 21 20 21 24 27 27 24 21 21 21 22 23 23 23 23 23 23 22 22 22 23 24 24 24 22 21 23 26 27 24 20 19 18 17 17 17 17 17 18 19 20 20 21 21 22 22 23 23 24 23 22 19 18 18 19 19 18 18 18 18 18 18 18 17 16 17 17 16 16 17 19 20
18 19 19 19 20 20 20 20 20 20 20 21 21 21 22 21 21 23 26 26 25 24 22 21 21 21 22 22 21 21 22 23 23 23 23 23 23 23 24 25 24 20 15 13 13 14 14 15 16 17 19 20 21 22 22 23 23 23 23 24 24 24 22 19 18 18 19 19 19 19 18 18 18 18 18 17 16 16 16 16 16 16 17 18 19
16 18 18 18 19 19 19 19 19 20 21 21 21 22 23 23 22 22 22 22 23 25 27 25 23 21 21 22 22 22 22 22 22 23 23 22 22 22 20 18 15 13 12 12 12 13 14 16 18 19 20 21 21 22 22 22 23 23 23 23 23 22 20 19 19 19 18 18 19 19 19 18 18 17 16 16 16 15 16 16 15 16 18 19 19
15 17 17 16 17 17 18 18 19 20 21 22 22 23 23 23 23 23 23 22 23 25 28 30 28 25 23 22 21 21 21 21 21 22 22 21 21 18 14 11 10 13 15 17 18 18 17 18 19 19 19 20 20 20 20 21 21 21 22 22 22 21 20 20 19 18 18 18 19 19 18 18 17 16 16 17 17 15 15 16 16 17 18 18 18
14 15 15 15 15 16 17 19 20 21 22 22 22 23 23 23 23 22 23 23 23 23 26 29 29 27 25 22 19 19 20 21 22 22 22 21 20 19 18 16 16 16 17 18 19 19 19 20 20 20 20 20 20 20 20 20 21 21 20 21 21 20 20 19 19 18 18 19 19 19 18 17 17 16 16 16 16 15 15 16 16 16 17 17 18
13 14 14 14 14 16 18 20 21 22 22 22 22 22 22 23 22 22 22 22 23 23 24 25 25 25 26 26 24 22 23 23 22 21 21 21 20 21 21 21 21 20 20 20 20 20 21 21 21 21 21 21 21 21 21 21 21 20 20 20 20 20 20 19 18 17 18 18 19 18 17 17 17 17 16 16 16 16 15 16 16 17 18 18 18
13 13 13 14 15 17 19 21 22 22 22 22 21 21 21 22 21 21 21 22 22 22 23 24 24 24 25 27 27 25 24 23 21 21 21 21 20 20 20 21 21 22 22 22 21 21 22 22 22 22 22 21 21 21 20 20 20 20 20 20 20 20 20 19 19 18 19 20 20 19 18 18 18 16 15 16 16 16 16 17 17 18 18 19 19
13 14 14 15 17 19 20 21 22 22 22 22 21 21 21 21 21 21 21 21 21 22 22 23 24 25 26 25 25 23 22 21 20 20 20 19 19 19 19 20 21 21 21 21 21 21 22 22 22 21 21 21 21 20 19 19 19 19 20 20 20 21 21 20 19 19 20 20 20 19 19 18 17 15 16 16 15 15 16 17 17 17 18 18 19
15 16 17 17 19 20 21 22 22 22 21 21 21 21 21 21 21 21 21 21 21 22 23 24 26 27 26 24 22 21 21 21 21 20 20 19 20 19 19 20 20 20 21 21 21 21 21 21 21 21 20 20 19 19 18 17 18 18 20 20 20 21 20 20 19 19 19 19 19 19 18 17 16 16 16 15 14 14 15 16 17 19 19 18 18
16 17 18 19 20 21 22 22 22 22 21 21 21 21 22 22 21 21 21 21 22 22 23 24 26 26 25 23 21 21 22 22 22 22 21 21 21 21 21 21 21 21 21 22 22 22 22 21 20 20 19 18 18 18 17 17 17 18 19 20 20 21 21 20 19 18 19 19 19 19 18 17 16 15 15 14 14 14 16 17 18 18 18 18 18
17 18 20 21 21 21 22 22 22 22 22 22 22 21 21 21 21 21 21 22 22 22 22 24 25 25 25 23 22 21 21 22 22 22 22 21 21 21 20 20 21 21 21 22 22 22 22 21 21 20 18 17 17 17 16 16 16 17 18 19 20 20 20 20 19 18 18 19 19 18 17 16 15 15 15 15 14 15 16 17 18 18 18 18 18
18 19 20 21 21 21 22 22 22 22 22 22 22 22 21 20 21 21 21 22 22 22 22 23 24 24 24 23 21 20 20 21 21 21 21 20 20 20 20 20 20 20 21 21 21 21 20 20 20 19 17 16 16 16 16 15 15 16 18 19 20 20 20 20 19 18 18 18 18 17 16 16 15 16 16 15 14 15 17 17 17 16 17 17 17
17 18 20 21 21 22 22 22 22 22 22 22 22 22 21 21 21 21 21 22 22 22 22 23 22 22 22 21 20 19 19 20 20 20 20 20 20 20 20 20 20 20 20 20 20 20 19 19 18 17 16 15 15 15 15 14 14 16 17 18 19 19 19 19 18 17 16 17 17 17 17 17 17 17 16 15 15 16 17 17 17 16 17 17 17
17 18 19 21 22 23 23 23 22 22 21 21 22 22 22 21 21 21 21 22 22 21 22 22 21 20 20 20 19 19 19 19 19 19 19 19 19 20 20 20 20 20 20 20 20 19 17 17 17 16 14 13 13 13 14 14 14 15 16 18 18 18 17 17 16 16 16 17 17 17 18 18 17 16 15 14 15 16 16 17 17 17 17 17 17
17 18 19 21 22 23 24 23 22 22 21 21 21 21 22 22 21 21 21 21 21 21 21 20 20 20 20 19 19 19 19 19 19 19 19 19 19 19 20 20 20 20 20 19 18 17 16 15 15 14 13 12 12 12 13 13 13 14 16 16 16 16 15 15 16 16 17 17 17 17 17 17 16 16 15 14 15 16 17 17 17 17 17 18 18
18 19 20 21 21 22 23 23 22 22 21 21 21 21 21 21 21 21 20 20 20 20 20 20 19 19 19 19 19 19 18 19 19 18 18 19 19 19 19 19 19 19 19 18 16 15 14 14 13 12 11 11 12 12 12 13 13 14 15 15 15 15 15 15 16 16 16 16 16 16 16 15 15 15 15 15 15 16 17 18 17 17 17 18 18
19 20 20 21 21 22 22 22 22 22 22 22 22 22 22 21 21 21 20 20 20 19 19 19 19 19 18 18 19 19 18 18 18 18 18 18 18 18 19 19 19 19 18 17 15 13 12 11 11 10 10 11 11 12 12 12 13 13 14 14 14 14 15 15 16 16 15 15 15 15 15 14 15 15 15 15 16 17 18 18 18 18 18 18 18
20 19 20 21 21 21 22 21 21 22 22 21 21 22 22 21 21 20 20 19 19 19 19 19 18 18 19 18 18 18 18 18 18 18 18 18 18 18 19 19 19 18 17 15 12 11 10 10 9 10 10 10 11 12 13 13 12 13 13 13 14 14 14 15 15 15 15 14 14 14 14 14 15 15 15 16 17 18 18 18 18 17 17 17 17
19 19 20 20 21 21 21 21 21 21 21 21 21 21 21 21 20 20 20 19 19 19 19 19 19 19 19 18 18 18 18 18 17 17 18 18 18 17 17 17 18 17 15 13 10 9 9 9 9 9 10 10 11 11 12 12 12 12 12 13 13 14 14 14 14 14 13 12 12 12 13 13 14 15 16 17 17 17 17 17 17 17 17 17 17
Wind_Direction
242 241 241 240 238 237 238 238 238 240 240 242 247 254 263 270 273 272 268 264 263 264 266 269 273 275 273 269 265 263 263 266 269 273 275 276 279 284 289 286 280 277 279 279 279 279 277 276 276 276 277 276 277 279 280 281 281 276 272 270 267 265 265 263 267 279 284 286 288 292 298 302 302 306 309 310 312 314 311 306 306 307 306 306 306
242 241 240 238 238 238 238 237 238 238 238 241 248 258 267 272 274 271 265 263 263 264 266 270 272 272 270 267 264 263 264 267 269 271 271 273 277 282 284 281 276 276 277 278 278 278 277 275 275 276 277 276 277 278 279 280 279 275 271 268 267 265 262 262 267 277 285 288 289 293 298 298 297 302 307 307 307 306 300 298 300 302 302 303 304
242 241 238 237 238 238 236 235 236 236 236 242 252 262 269 272 271 267 264 263 262 262 265 269 270 270 268 266 264 264 266 268 269 269 269 272 276 279 279 276 273 274 275 277 278 278 276 274 273 275 276 276 276 278 278 278 276 273 271 268 267 267 263 260 264 271 280 286 288 291 296 295 291 295 298 295 294 295 295 297 301 302 303 304 305
241 239 237 237 236 234 233 234 233 232 236 246 257 265 269 269 266 263 261 260 259 260 264 266 267 267 265 264 264 265 267 267 268 267 268 273 276 277 276 273 271 273 275 276 277 277 274 272 272 274 274 273 274 276 277 276 274 271 270 270 267 267 266 261 258 265 274 281 285 287 290 291 289 291 292 290 292 297 299 301 303 303 304 304 303
239 238 235 234 232 230 231 231 229 232 240 252 260 266 266 264 262 260 257 256 257 259 262 262 264 264 264 264 265 267 268 267 266 266 269 273 276 276 275 272 272 273 274 276 276 275 272 271 271 272 272 270 270 273 274 273 274 271 269 269 268 268 268 263 259 262 268 275 281 285 286 288 288 288 289 291 293 298 299 299 299 300 299 298 298
238 235 232 229 228 228 229 228 229 236 247 257 263 265 264 261 259 256 254 255 257 258 260 262 264 265 264 265 266 267 268 266 266 266 269 273 275 275 274 274 274 274 274 275 275 273 270 270 271 271 270 268 268 271 273 273 273 272 270 270 270 269 268 266 264 263 265 270 276 281 283 284 286 286 288 289 288 290 293 296 297 296 296 297 298
235 231 229 227 226 227 227 227 233 244 254 261 263 263 262 259 257 255 255 256 257 258 261 264 266 267 266 266 266 267 267 266 266 267 270 273 275 275 275 274 273 273 274 274 274 274 271 270 270 270 270 270 270 272 273 273 272 271 271 272 272 270 268 267 267 265 264 267 271 275 278 278 280 283 285 287 284 283 287 293 296 297 298 298 298
231 228 225 224 224 225 227 231 241 251 258 262 262 262 260 257 256 256 257 256 257 260 264 267 268 268 267 267 267 267 266 265 265 267 270 273 274 274 274 274 273 273 274 275 276 275 273 272 271 271 272 272 273 273 273 272 271 270 271 272 271 268 266 265 265 263 262 264 266 269 273 274 275 279 282 283 280 279 283 286 288 293 297 297 294
227 224 221 221 223 225 231 239 248 255 259 261 262 261 259 256 256 257 257 258 261 265 268 268 268 268 268 268 268 267 266 265 266 268 270 273 274 274 275 274 273 273 273 274 275 275 275 274 272 272 273 273 273 273 272 271 270 269 270 270 268 265 264 263 261 260 259 261 264 267 269 268 269 273 276 274 273 277 282 283 282 284 289 291 291
222 218 217 220 225 230 238 246 251 256 260 262 263 261 258 256 257 258 259 261 265 268 268 267 266 267 269 269 269 268 266 266 268 269 268 270 272 273 273 271 269 271 271 270 270 272 272 271 271 273 274 273 271 269 267 266 264 263 264 264 262 259 256 255 253 253 254 256 260 263 264 264 266 268 271 272 274 276 277 275 276 280 284 286 288
217 216 218 224 230 236 242 248 253 259 263 265 263 259 257 257 258 259 261 265 268 268 267 265 266 268 270 270 270 269 268 269 269 268 265 266 268 268 267 266 266 267 266 264 265 266 265 263 266 269 268 265 263 261 259 258 257 258 259 259 259 257 254 251 251 251 251 255 259 260 258 261 266 268 269 272 272 270 268 267 269 274 278 277 282
216 218 224 230 233 238 245 251 258 264 267 266 262 259 259 258 258 260 263 268 270 268 267 267 269 271 272 271 270 269 270 271 270 267 266 268 268 267 267 267 266 265 263 263 263 261 258 258 260 261 260 260 261 261 260 258 257 257 258 259 260 260 259 259 259 258 256 257 259 257 254 258 265 266 266 268 268 265 264 263 261 263 266 265 267
219 223 227 232 236 243 251 258 265 268 268 266 262 260 260 258 259 263 268 271 271 269 268 269 271 273 273 272 272 271 272 273 271 268 269 270 271 271 271 270 268 267 266 264 263 261 259 258 258 259 260 260 260 260 260 260 260 259 258 259 259 260 261 263 264 266 265 263 264 262 260 263 267 267 266 267 268 268 266 263 262 261 260 261 262
222 226 230 235 243 251 258 264 268 270 269 266 263 261 260 261 264 268 270 270 269 268 270 271 272 274 274 274 274 274 275 276 274 271 270 271 272 273 273 272 270 269 267 265 263 260 256 256 258 260 261 260 260 261 260 260 260 260 260 261 261 262 262 263 264 266 266 266 267 268 267 268 268 268 269 269 267 266 264 263 264 262 261 262 265
225 230 234 241 249 256 262 268 270 270 268 266 263 262 262 265 268 269 269 269 269 270 271 272 273 274 274 274 275 275 276 278 276 272 271 272 273 274 275 274 272 270 268 267 264 261 260 263 264 263 262 263 265 264 262 261 261 262 262 263 264 265 265 265 266 267 267 267 267 268 268 268 269 269 271 271 268 267 266 264 264 265 267 270 272
228 233 239 246 255 262 268 271 270 269 268 265 263 262 264 267 269 270 270 269 270 270 271 271 273 274 274 275 275 275 278 279 275 273 273 274 275 276 276 275 273 271 270 270 269 269 270 269 265 264 265 268 269 265 260 260 261 262 263 264 265 266 266 269 271 271 271 270 268 269 270 271 273 274 275 274 271 271 271 267 266 266 266 267 270
232 238 245 255 263 269 271 270 269 267 265 262 261 262 265 268 270 271 270 270 270 271 272 273 274 274 275 275 274 276 279 280 277 274 274 275 275 275 275 273 272 270 268 268 268 268 267 264 263 266 268 270 271 267 260 257 256 256 257 259 261 262 264 269 273 274 274 272 270 271 272 276 279 279 280 280 280 284 287 277 272 272 267 263 265
239 245 254 264 269 270 269 267 266 264 262 260 261 264 267 270 272 272 271 271 272 273 274 275 275 274 274 275 275 276 279 281 279 275 274 276 275 274 275 274 271 269 268 268 267 265 264 265 267 269 270 271 271 266 259 257 255 254 255 256 256 256 259 263 266 268 271 273 274 276 279 282 284 284 285 285 286 293 300 292 287 286 279 274 275
248 255 263 268 269 268 266 264 262 261 260 260 262 267 270 273 274 274 272 272 274 275 275 275 275 275 275 276 276 276 277 280 280 277 275 276 275 274 275 273 270 269 268 267 266 264 264 265 266 266 265 266 264 261 260 261 257 254 254 255 254 255 257 258 258 259 262 265 270 275 278 279 280 281 283 284 284 287 291 293 291 280 271 271 274
256 262 266 267 266 265 264 263 261 261 262 264 268 271 273 275 275 274 273 273 274 275 274 273 275 277 277 277 277 276 275 279 282 280 276 276 275 273 272 270 267 266 266 264 262 260 259 261 265 266 265 263 260 259 261 264 260 256 254 251 250 254 258 259 258 257 256 255 256 260 264 268 273 276 281 284 286 287 290 294 292 276 265 268 270
260 262 264 264 264 265 265 264 264 264 266 269 272 273 275 276 276 276 275 275 275 274 274 274 275 277 279 278 278 278 277 278 282 282 278 275 275 273 270 269 267 267 267 266 263 261 261 261 264 268 269 265 261 261 264 266 265 263 259 253 254 262 265 260 254 248 243 243 248 254 259 266 274 280 285 288 288 289 291 293 292 282 268 262 262
260 261 263 264 265 266 266 265 266 268 270 272 273 275 277 278 278 277 275 274 274 274 275 275 275 277 280 279 278 278 279 279 282 283 280 276 274 272 269 268 267 266 265 263 261 260 260 260 263 268 270 265 261 262 265 267 267 267 266 265 269 272 267 248 231 227 237 258 273 279 281 282 285 289 292 292 291 291 290 289 288 286 278 266 260
259 260 262 264 266 267 268 268 270 272 273 275 275 277 280 280 279 277 275 274 274 274 275 276 275 277 279 280 279 280 281 282 282 284 283 279 274 271 270 268 267 264 263 262 261 260 259 260 263 266 263 258 258 262 265 267 269 270 270 274 279 273 244 222 238 260 277 286 287 287 288 289 290 292 293 294 293 291 289 287 285 284 280 272 262
259 260 262 264 267 270 271 273 274 275 276 277 277 278 280 281 280 278 275 273 273 273 274 275 274 274 277 280 281 281 282 285 286 286 286 282 276 272 270 269 268 267 267 267 267 266 265 265 263 260 258 259 263 267 269 271 273 275 278 283 284 271 253 264 280 284 284 283 281 281 284 287 288 290 292 293 293 290 287 284 281 276 272 268 265
258 260 264 266 270 274 276 277 278 278 278 278 278 279 281 281 280 279 277 274 271 272 273 274 272 272 273 276 279 282 284 286 288 288 287 284 280 274 271 271 270 271 273 273 274 274 272 268 264 262 264 267 270 271 272 273 275 279 283 283 275 265 266 275 282 282 276 273 273 276 281 285 287 289 290 290 287 284 281 278 276 274 274 274 274
259 263 266 269 274 277 278 279 280 279 280 279 280 281 281 280 279 279 276 273 271 270 271 272 271 270 270 272 276 281 284 286 287 289 288 285 283 280 278 275 271 269 269 270 271 273 272 270 269 267 267 268 268 269 272 274 275 276 275 269 260 259 266 273 276 274 271 271 273 276 281 285 287 286 286 283 280 277 277 279 281 281 281 281 281
262 265 268 273 276 277 278 280 280 281 282 282 282 283 281 279 278 277 274 272 271 270 270 269 268 266 268 271 274 278 281 283 284 286 286 285 285 284 281 276 271 269 269 269 271 273 273 273 273 272 269 267 265 264 265 266 266 264 262 261 260 263 267 270 271 270 269 271 275 277 280 282 282 282 281 279 277 277 279 281 282 281 281 281 279
265 269 272 275 277 277 278 279 281 282 284 284 284 284 283 280 277 275 276 274 271 270 270 268 266 265 265 268 271 274 275 276 278 283 286 285 284 281 277 272 270 269 269 271 272 272 272 272 272 272 271 269 266 264 262 260 260 260 261 262 264 264 265 266 265 265 267 270 272 273 276 278 277 278 279 279 278 281 284 284 279 276 278 279 277
268 271 274 275 276 277 279 279 281 283 285 286 286 285 284 284 281 282 285 283 278 276 273 270 270 269 266 266 265 263 265 272 282 288 287 281 276 273 271 270 270 269 271 274 273 270 267 267 266 266 265 263 262 263 262 262 262 261 261 262 262 261 260 259 258 261 265 268 269 270 273 274 274 275 278 279 280 284 287 283 277 276 278 277 273
270 272 273 274 276 278 280 282 284 285 286 287 289 289 291 290 285 282 286 288 286 281 272 270 272 271 266 265 264 262 265 276 285 285 279 275 272 270 270 270 269 267 269 270 266 262 258 257 256 254 253 253 253 254 255 257 258 260 261 260 259 257 255 256 258 263 266 267 269 269 270 269 269 271 274 277 281 285 284 278 275 277 277 274 272
271 272 274 275 278 281 283 284 286 287 286 288 289 290 294 297 292 284 281 284 285 281 273 271 276 275 270 270 272 272 273 278 279 276 275 277 278 279 280 279 275 269 266 264 258 252 248 248 249 249 249 249 249 250 252 253 254 256 258 257 254 253 253 255 258 262 264 266 266 264 263 263 265 269 274 276 278 279 278 277 277 276 275 274 274
271 273 276 278 281 283 283 284 286 286 287 288 289 289 291 297 299 298 294 286 281 280 279 280 282 282 280 280 282 283 283 282 280 279 280 282 284 287 289 285 279 276 274 269 262 255 249 246 246 246 246 247 247 250 252 253 253 254 255 254 253 252 253 255 257 259 261 261 259 257 258 261 265 270 272 272 272 273 276 279 279 276 276 276 274
273 275 278 280 282 283 283 284 285 286 287 288 290 289 288 288 293 299 301 298 289 283 280 280 283 286 287 287 288 289 290 289 288 286 286 286 287 290 287 281 280 280 275 262 253 251 248 246 247 249 251 253 256 258 259 258 259 258 257 256 256 256 256 257 258 257 255 254 255 256 258 260 264 268 269 267 269 274 277 277 277 277 277 275 273
275 276 279 281 282 283 284 285 286 288 289 289 289 289 288 285 285 290 296 300 301 296 290 286 287 289 289 289 290 290 290 291 291 290 290 289 287 285 283 280 279 277 264 243 240 248 251 252 255 258 260 262 265 265 264 264 263 262 261 259 258 258 258 257 254 252 252 253 254 254 254 257 262 266 267 267 270 273 273 274 276 277 275 274 274
279 279 281 282 282 283 286 288 290 291 291 291 289 288 288 287 286 284 284 288 293 296 296 295 294 292 289 289 289 288 287 289 289 288 288 286 283 283 283 279 273 264 255 256 264 269 267 264 264 265 265 265 266 265 265 265 264 262 261 260 257 256 254 252 251 251 253 253 252 251 252 257 262 263 264 267 269 269 269 272 276 277 275 275 274
283 284 284 284 286 288 291 293 294 293 292 292 291 290 288 287 285 283 282 282 283 286 291 295 298 298 294 289 287 287 288 289 288 287 285 283 284 287 290 291 286 278 273 275 279 278 274 271 269 268 268 267 266 266 266 266 266 264 262 260 257 254 252 250 250 252 252 251 250 251 253 257 258 259 264 268 268 267 269 274 278 277 275 274 272
286 286 287 290 294 296 297 298 297 296 295 293 291 290 288 286 284 283 282 282 282 283 287 293 298 300 298 294 291 290 291 291 291 289 287 286 288 293 297 297 293 283 276 274 274 272 269 268 267 267 267 266 265 266 266 266 267 265 263 259 256 254 252 251 251 252 252 252 251 250 252 254 256 260 265 267 266 267 271 276 278 276 275 275 276
288 289 293 297 299 299 299 299 299 297 295 292 290 288 286 285 285 283 281 281 282 284 286 289 292 294 294 295 298 298 296 295 291 287 286 287 287 287 289 289 286 280 275 273 272 268 265 265 265 265 265 266 265 265 265 265 265 265 262 259 257 254 252 251 251 251 251 251 250 250 251 255 258 262 264 264 265 268 273 276 276 275 276 277 276
294 295 297 299 300 299 300 300 299 297 294 291 289 287 285 284 284 283 282 282 282 282 284 286 286 286 288 293 299 301 298 293 288 286 286 285 282 280 279 276 275 273 271 270 269 267 264 264 264 265 265 266 267 266 264 263 262 262 261 260 257 253 249 248 249 250 248 247 249 251 253 255 259 262 262 262 264 270 275 277 276 274 276 276 275
300 299 299 300 300 300 301 299 296 294 292 290 289 288 285 284 284 284 284 283 282 282 284 283 283 285 289 292 295 296 292 287 285 286 286 284 283 282 278 274 271 269 268 268 268 267 266 266 266 266 266 266 267 267 266 263 259 259 260 260 257 253 250 249 251 253 251 249 251 252 252 254 257 261 261 262 266 272 276 277 277 277 278 278 278
305 302 301 301 302 302 301 298 295 294 293 290 289 287 286 285 286 285 284 282 281 282 283 282 283 286 290 291 292 291 288 286 287 289 288 287 287 285 281 277 274 271 270 271 270 269 268 268 267 267 267 268 268 267 266 262 259 257 258 259 257 254 252 251 253 255 253 252 253 253 252 254 257 260 263 265 268 272 275 275 279 281 280 279 279
305 302 302 302 302 301 299 297 297 296 294 291 288 287 287 287 287 285 283 282 281 282 283 284 286 289 292 291 291 291 289 287 287 287 286 285 285 282 280 278 276 274 273 273 274 274 273 271 270 270 269 268 269 267 264 262 260 258 259 259 256 253 251 251 254 256 255 254 254 254 253 255 257 259 263 264 266 271 275 278 281 282 280 279 279
302 302 302 302 301 300 298 297 297 296 293 292 291 291 290 288 286 284 283 282 283 283 283 285 288 291 293 293 293 291 287 285 284 284 284 283 282 281 280 278 277 275 275 275 276 277 276 273 272 271 270 270 271 267 262 261 262 262 261 260 256 254 252 253 255 257 256 255 255 254 253 254 256 259 262 264 266 272 278 281 282 281 280 280 280
303 302 301 301 301 300 298 297 297 295 294 294 293 291 290 288 286 285 284 283 284 284 284 285 288 291 292 294 294 290 287 285 284 283 283 283 282 282 282 281 280 279 277 277 279 280 278 275 272 270 270 272 272 266 259 258 261 263 263 261 258 255 253 253 256 259 259 258 257 254 253 254 257 261 264 266 270 275 278 279 280 282 282 282 282
304 303 302 302 301 300 298 298 297 296 295 295 293 292 291 290 287 287 285 284 285 285 285 286 288 289 290 292 292 290 288 287 286 285 285 285 284 284 284 283 283 281 280 281 282 282 279 277 274 270 268 271 271 264 256 255 259 264 264 262 259 256 254 256 261 264 263 260 257 254 254 256 258 262 266 269 273 276 276 278 281 283 283 283 281
304 304 303 302 301 299 299 299 298 297 295 294 293 293 294 292 290 289 287 286 285 286 287 288 290 290 290 291 291 291 290 289 288 288 288 288 287 287 287 286 285 284 284 284 285 284 282 279 274 269 267 270 269 261 254 254 262 267 265 262 259 257 256 260 264 264 261 258 255 253 254 256 258 262 266 269 273 275 275 278 283 283 281 281 282
305 305 303 302 300 299 298 299 299 298 297 296 294 293 293 293 292 291 289 289 288 288 288 289 290 290 291 292 292 292 292 291 291 291 291 291 290 289 289 288 287 287 288 289 288 285 284 281 275 270 268 269 264 255 251 257 265 268 266 261 258 256 257 261 264 263 261 259 255 253 254 255 258 263 267 268 272 275 277 280 284 282 279 281 283
307 306 303 301 300 298 298 299 300 298 298 298 296 295 293 293 293 292 292 292 291 290 290 290 291 292 292 293 294 294 294 293 293 293 293 292 292 292 291 291 292 292 292 292 290 287 287 285 278 270 269 269 262 253 252 259 266 268 264 260 257 257 260 263 264 263 261 258 253 251 252 255 260 266 269 269 273 277 280 282 284 282 282 283 284
308 306 304 302 301 299 299 300 299 298 298 298 297 296 296 295 294 294 294 293 293 292 292 292 292 294 294 295 296 297 297 296 295 295 295 294 294 295 295 296 297 298 296 293 291 290 290 285 276 268 268 270 264 256 254 259 266 268 265 260 259 261 262 263 263 263 262 259 252 247 248 255 263 266 266 268 275 280 282 283 283 282 282 284 284
308 306 305 303 302 301 302 301 299 299 299 298 296 295 296 296 295 296 296 296 295 295 295 295 295 296 297 297 298 299 298 298 297 297 297 297 297 299 302 303 304 303 300 295 292 289 284 276 269 266 269 273 269 263 259 258 261 266 267 265 264 264 264 264 263 262 259 255 250 246 249 256 262 263 265 272 279 283 284 282 282 282 282 283 284
310 308 307 305 304 304 304 303 301 301 300 299 297 295 295 295 296 297 298 297 296 297 297 297 298 298 299 300 300 300 299 299 299 298 299 300 301 305 310 313 312 308 302 296 290 285 278 271 268 269 272 275 276 272 267 261 258 262 265 266 267 268 268 266 263 259 254 250 250 250 251 254 258 263 270 276 281 282 282 281 280 281 282 283 284